This is the latest recevied weather packets stored in our database for station/object KC2TER. If no packets are shown the sender has not sent any weather packets the latest 10 day(s).
| Time | Temp. | Humidity | Pressure | Rain* | Wind** | Luminosity | Snow |
|---|---|---|---|---|---|---|---|
| 1777897048 | 12.78° C | 66% | 1014.7 hPa | 0 mm | - | 49 W/m² | - |
| 1777896745 | 12.78° C | 66% | 1014.7 hPa | 0 mm | - | 155 W/m² | - |
| 1777896442 | 12.78° C | 67% | 1014.6 hPa | 0 mm | - | 81 W/m² | - |
| 1777896140 | 12.22° C | 68% | 1014.8 hPa | 0 mm | - | 98 W/m² | - |
| 1777895837 | 12.22° C | 68% | 1014.9 hPa | 0 mm | - | 225 W/m² | - |
| 1777895534 | 12.22° C | 69% | 1014.8 hPa | 0 mm | - | 239 W/m² | - |
| 1777895232 | 11.67° C | 69% | 1015 hPa | 0 mm | - | 184 W/m² | - |
| 1777894930 | 11.67° C | 70% | 1015.1 hPa | 0 mm | - | 104 W/m² | - |
| 1777894627 | 11.11° C | 71% | 1014.7 hPa | 0 mm | - | 51 W/m² | - |
| 1777894324 | 11.11° C | 72% | 1015 hPa | 0 mm | - | 58 W/m² | - |
| 1777894021 | 11.11° C | 72% | 1015.1 hPa | 0 mm | - | 65 W/m² | - |
| 1777893717 | 10.56° C | 72% | 1014.9 hPa | 0 mm | - | 128 W/m² | - |
| 1777893413 | 10.56° C | 72% | 1015.1 hPa | 0 mm | - | 42 W/m² | - |
| 1777893110 | 10.56° C | 72% | 1015.1 hPa | 0 mm | - | 39 W/m² | - |
| 1777892807 | 10.56° C | 72% | 1015 hPa | 0 mm | - | 35 W/m² | - |
| 1777892503 | 10.56° C | 72% | 1015.2 hPa | 0 mm | - | 33 W/m² | - |
| 1777892198 | 10.56° C | 71% | 1015.1 hPa | 0 mm | - | 32 W/m² | - |
| 1777891896 | 10° C | 71% | 1015.1 hPa | 0 mm | - | 47 W/m² | - |
| 1777891593 | 10° C | 71% | 1015.2 hPa | 0 mm | - | 34 W/m² | - |
| 1777891290 | 10° C | 71% | 1015.1 hPa | 0 mm | - | 24 W/m² | - |
| 1777890989 | 10° C | 71% | 1015.1 hPa | 0 mm | - | 23 W/m² | - |
| 1777890684 | 10° C | 71% | 1015.1 hPa | 0 mm | - | 19 W/m² | - |
| 1777890380 | 9.44° C | 71% | 1015.2 hPa | 0 mm | - | 17 W/m² | - |
| 1777890076 | 9.44° C | 71% | 1014.9 hPa | 0 mm | - | 14 W/m² | - |
| 1777889774 | 9.44° C | 71% | 1015 hPa | 0 mm | - | 11 W/m² | - |
* Rain latest hour (hover to see other rain measurements)
** Current wind speed in m/s (hover to see current wind gust speed)